Location: Gisborne
(38.6530°S, 178.0040°E)
Time: 02:00:49
(UTC+13:00)

CZ-2C R/B - Pass Details

Date: 24 January 2019
Orbit: 705 x 907 km, 98.1° (Epoch: 15 February)

Event Time Altitude Azimuth Distance (km) Brightness Sun altitude
Rises 22:16:38 0° 151° (SSE) 3,133 6.4 -17.9°
Reaches altitude 10° 22:19:29 10° 133° (SE) 2,212 5.4 -18.3°
Enters shadow 22:22:16 19° 98° (E) 1,675 4.4 -18.7°
